Year,Month,Day,Hour,Minute,Value (Times are PST for temperature in C)
2008,07,25,00,00,13.80
2008,07,25,00,01,13.80
2008,07,25,00,02,13.80
2008,07,25,00,03,13.70
2008,07,25,00,04,13.70
2008,07,25,00,05,13.70
2008,07,25,00,06,13.70
2008,07,25,00,07,13.70
2008,07,25,00,08,13.70
2008,07,25,00,09,13.70
2008,07,25,00,10,13.70
2008,07,25,00,11,13.70
2008,07,25,00,12,13.70
2008,07,25,00,13,13.60
2008,07,25,00,14,13.60
2008,07,25,00,15,13.60
2008,07,25,00,16,13.60
2008,07,25,00,17,13.60
2008,07,25,00,18,13.50
2008,07,25,00,19,13.50
2008,07,25,00,20,13.50
2008,07,25,00,21,13.50
2008,07,25,00,22,13.40
2008,07,25,00,23,13.40
2008,07,25,00,24,13.40
2008,07,25,00,25,13.40
2008,07,25,00,26,13.40
2008,07,25,00,27,13.30
2008,07,25,00,28,13.30
2008,07,25,00,29,13.30
2008,07,25,00,30,13.30
2008,07,25,00,31,13.30
2008,07,25,00,32,13.30
2008,07,25,00,33,13.30
2008,07,25,00,34,13.20
2008,07,25,00,35,13.20
2008,07,25,00,36,13.20
2008,07,25,00,37,13.20
2008,07,25,00,38,13.10
2008,07,25,00,39,13.10
2008,07,25,00,40,13.10
2008,07,25,00,41,13.10
2008,07,25,00,42,13.00
2008,07,25,00,43,13.00
2008,07,25,00,44,13.00
2008,07,25,00,45,13.00
2008,07,25,00,46,12.90
2008,07,25,00,47,12.90
2008,07,25,00,48,12.90
2008,07,25,00,49,12.90
2008,07,25,00,50,12.90
2008,07,25,00,51,12.80
2008,07,25,00,52,12.80
2008,07,25,00,53,12.80
2008,07,25,00,54,12.80
2008,07,25,00,55,12.80
2008,07,25,00,56,12.80
2008,07,25,00,57,12.80
2008,07,25,00,58,12.80
2008,07,25,00,59,12.80
2008,07,25,01,00,12.80
2008,07,25,01,01,12.80
2008,07,25,01,02,12.70
2008,07,25,01,03,12.70
2008,07,25,01,04,12.70
2008,07,25,01,05,12.70
2008,07,25,01,06,12.60
2008,07,25,01,07,12.60
2008,07,25,01,08,12.60
2008,07,25,01,09,12.60
2008,07,25,01,10,12.50
2008,07,25,01,11,12.50
2008,07,25,01,12,12.50
2008,07,25,01,13,12.50
2008,07,25,01,14,12.50
2008,07,25,01,15,12.40
2008,07,25,01,16,12.40
2008,07,25,01,17,12.40
2008,07,25,01,18,12.40
2008,07,25,01,19,12.40
2008,07,25,01,20,12.30
2008,07,25,01,21,12.30
2008,07,25,01,22,12.30
2008,07,25,01,23,12.30
2008,07,25,01,24,12.30
2008,07,25,01,25,12.30
2008,07,25,01,26,12.30
2008,07,25,01,27,12.30
2008,07,25,01,28,12.20
2008,07,25,01,29,12.20
2008,07,25,01,30,12.20
2008,07,25,01,31,12.20
2008,07,25,01,32,12.20
2008,07,25,01,33,12.20
2008,07,25,01,34,12.20
2008,07,25,01,35,12.20
2008,07,25,01,36,12.10
2008,07,25,01,37,12.10
2008,07,25,01,38,12.10
2008,07,25,01,39,12.10
2008,07,25,01,40,12.10
2008,07,25,01,41,12.10
2008,07,25,01,42,12.10
2008,07,25,01,43,12.00
2008,07,25,01,44,12.00
2008,07,25,01,45,12.00
2008,07,25,01,46,12.00
2008,07,25,01,47,12.00
2008,07,25,01,48,11.90
2008,07,25,01,49,11.90
2008,07,25,01,50,11.90
2008,07,25,01,51,11.90
2008,07,25,01,52,11.90
2008,07,25,01,53,11.90
2008,07,25,01,54,11.90
2008,07,25,01,55,11.90
2008,07,25,01,56,11.90
2008,07,25,01,57,11.90
2008,07,25,01,58,11.90
2008,07,25,01,59,11.80
2008,07,25,02,00,11.80
2008,07,25,02,01,11.80
2008,07,25,02,02,11.80
2008,07,25,02,03,11.80
2008,07,25,02,04,11.80
2008,07,25,02,05,11.80
2008,07,25,02,06,11.80
2008,07,25,02,07,11.80
2008,07,25,02,08,11.80
2008,07,25,02,09,11.80
2008,07,25,02,10,11.80
2008,07,25,02,11,11.80
2008,07,25,02,12,11.80
2008,07,25,02,13,11.80
2008,07,25,02,14,11.70
2008,07,25,02,15,11.70
2008,07,25,02,16,11.70
2008,07,25,02,17,11.70
2008,07,25,02,18,11.70
2008,07,25,02,19,11.70
2008,07,25,02,20,11.70
2008,07,25,02,21,11.70
2008,07,25,02,22,11.70
2008,07,25,02,23,11.70
2008,07,25,02,24,11.70
2008,07,25,02,25,11.70
2008,07,25,02,26,11.60
2008,07,25,02,27,11.60
2008,07,25,02,28,11.60
2008,07,25,02,29,11.60
2008,07,25,02,30,11.60
2008,07,25,02,31,11.60
2008,07,25,02,32,11.60
2008,07,25,02,33,11.50
2008,07,25,02,34,11.40
2008,07,25,02,35,11.40
2008,07,25,02,36,11.40
2008,07,25,02,37,11.40
2008,07,25,02,38,11.40
2008,07,25,02,39,11.40
2008,07,25,02,40,11.30
2008,07,25,02,41,11.30
2008,07,25,02,42,11.30
2008,07,25,02,43,11.30
2008,07,25,02,44,11.30
2008,07,25,02,45,11.30
2008,07,25,02,46,11.30
2008,07,25,02,47,11.30
2008,07,25,02,48,11.30
2008,07,25,02,49,11.30
2008,07,25,02,50,11.20
2008,07,25,02,51,11.30
2008,07,25,02,52,11.30
2008,07,25,02,53,11.30
2008,07,25,02,54,11.30
2008,07,25,02,55,11.30
2008,07,25,02,56,11.30
2008,07,25,02,57,11.30
2008,07,25,02,58,11.30
2008,07,25,02,59,11.30
2008,07,25,03,00,11.30
2008,07,25,03,01,11.30
2008,07,25,03,02,11.20
2008,07,25,03,03,11.20
2008,07,25,03,04,11.20
2008,07,25,03,05,11.20
2008,07,25,03,06,11.20
2008,07,25,03,07,11.20
2008,07,25,03,08,11.20
2008,07,25,03,09,11.10
2008,07,25,03,10,11.10
2008,07,25,03,11,11.10
2008,07,25,03,12,11.10
2008,07,25,03,13,11.10
2008,07,25,03,14,11.10
2008,07,25,03,15,11.10
2008,07,25,03,16,11.10
2008,07,25,03,17,11.10
2008,07,25,03,18,10.90
2008,07,25,03,19,10.90
2008,07,25,03,20,10.90
2008,07,25,03,21,10.90
2008,07,25,03,22,10.90
2008,07,25,03,23,10.90
2008,07,25,03,24,10.90
2008,07,25,03,25,10.90
2008,07,25,03,26,10.90
2008,07,25,03,27,10.90
2008,07,25,03,28,10.90
2008,07,25,03,29,10.90
2008,07,25,03,30,10.90
2008,07,25,03,31,10.80
2008,07,25,03,32,10.80
2008,07,25,03,33,10.80
2008,07,25,03,34,10.80
2008,07,25,03,35,10.80
2008,07,25,03,36,10.80
2008,07,25,03,37,10.80
2008,07,25,03,38,10.80
2008,07,25,03,39,10.80
2008,07,25,03,40,10.70
2008,07,25,03,41,10.70
2008,07,25,03,42,10.70
2008,07,25,03,43,10.70
2008,07,25,03,44,10.70
2008,07,25,03,45,10.80
2008,07,25,03,46,10.80
2008,07,25,03,47,10.80
2008,07,25,03,48,10.80
2008,07,25,03,49,10.70
2008,07,25,03,50,10.70
2008,07,25,03,51,10.70
2008,07,25,03,52,10.70
2008,07,25,03,53,10.70
2008,07,25,03,54,10.70
2008,07,25,03,55,10.60
2008,07,25,03,56,10.60
2008,07,25,03,57,10.60
2008,07,25,03,58,10.60
2008,07,25,03,59,10.60
2008,07,25,04,00,10.60
2008,07,25,04,01,10.60
2008,07,25,04,02,10.60
2008,07,25,04,03,10.60
2008,07,25,04,04,10.60
2008,07,25,04,05,10.60
2008,07,25,04,06,10.50
2008,07,25,04,07,10.40
2008,07,25,04,08,10.40
2008,07,25,04,09,10.40
2008,07,25,04,10,10.40
2008,07,25,04,11,10.40
2008,07,25,04,12,10.40
2008,07,25,04,13,10.40
2008,07,25,04,14,10.40
2008,07,25,04,15,10.40
2008,07,25,04,16,10.40
2008,07,25,04,17,10.40
2008,07,25,04,18,10.40
2008,07,25,04,19,10.40
2008,07,25,04,20,10.40
2008,07,25,04,21,10.40
2008,07,25,04,22,10.40
2008,07,25,04,23,10.40
2008,07,25,04,24,10.40
2008,07,25,04,25,10.40
2008,07,25,04,26,10.40
2008,07,25,04,27,10.40
2008,07,25,04,28,10.40
2008,07,25,04,29,10.40
2008,07,25,04,30,10.40
2008,07,25,04,31,10.40
2008,07,25,04,32,10.30
2008,07,25,04,33,10.30
2008,07,25,04,34,10.30
2008,07,25,04,35,10.30
2008,07,25,04,36,10.30
2008,07,25,04,37,10.30
2008,07,25,04,38,10.20
2008,07,25,04,39,10.20
2008,07,25,04,40,10.20
2008,07,25,04,41,10.20
2008,07,25,04,42,10.20
2008,07,25,04,43,10.20
2008,07,25,04,44,10.20
2008,07,25,04,45,10.20
2008,07,25,04,46,10.20
2008,07,25,04,47,10.20
2008,07,25,04,48,10.20
2008,07,25,04,49,10.20
2008,07,25,04,50,10.20
2008,07,25,04,51,10.20
2008,07,25,04,52,10.10
2008,07,25,04,53,10.10
2008,07,25,04,54,10.10
2008,07,25,04,55,10.10
2008,07,25,04,56,10.10
2008,07,25,04,57,10.10
2008,07,25,04,58,10.10
2008,07,25,04,59,10.10
2008,07,25,05,00,10.10
2008,07,25,05,01,10.10
2008,07,25,05,02,10.10
2008,07,25,05,03,10.10
2008,07,25,05,04,10.10
2008,07,25,05,05,10.10
2008,07,25,05,06,10.10
2008,07,25,05,07,10.10
2008,07,25,05,08,10.00
2008,07,25,05,09,9.90
2008,07,25,05,10,9.90
2008,07,25,05,11,9.90
2008,07,25,05,12,9.90
2008,07,25,05,13,9.90
2008,07,25,05,14,9.90
2008,07,25,05,15,9.90
2008,07,25,05,16,9.90
2008,07,25,05,17,9.90
2008,07,25,05,18,9.90
2008,07,25,05,19,9.90
2008,07,25,05,20,9.90
2008,07,25,05,21,9.90
2008,07,25,05,22,9.90
2008,07,25,05,23,9.90
2008,07,25,05,24,9.90
2008,07,25,05,25,9.90
2008,07,25,05,26,9.90
2008,07,25,05,27,9.90
2008,07,25,05,28,9.90
2008,07,25,05,29,9.90
2008,07,25,05,30,9.90
2008,07,25,05,31,9.90
2008,07,25,05,32,10.00
2008,07,25,05,33,10.10
2008,07,25,05,34,10.10
2008,07,25,05,35,10.10
2008,07,25,05,36,10.10
2008,07,25,05,37,10.00
2008,07,25,05,38,9.90
2008,07,25,05,39,9.90
2008,07,25,05,40,9.90
2008,07,25,05,41,9.90
2008,07,25,05,42,9.90
2008,07,25,05,43,9.90
2008,07,25,05,44,9.90
2008,07,25,05,45,9.90
2008,07,25,05,46,9.90
2008,07,25,05,47,9.90
2008,07,25,05,48,9.80
2008,07,25,05,49,9.80
2008,07,25,05,50,9.80
2008,07,25,05,51,9.80
2008,07,25,05,52,9.80
2008,07,25,05,53,9.80
2008,07,25,05,54,9.80
2008,07,25,05,55,9.80
2008,07,25,05,56,9.90
2008,07,25,05,57,9.90
2008,07,25,05,58,9.90
2008,07,25,05,59,9.90
2008,07,25,06,00,9.90
2008,07,25,06,01,9.90
2008,07,25,06,02,9.90
2008,07,25,06,03,9.90
2008,07,25,06,04,9.90
2008,07,25,06,05,9.90
2008,07,25,06,06,9.90
2008,07,25,06,07,9.90
2008,07,25,06,08,9.90
2008,07,25,06,09,9.90
2008,07,25,06,10,10.00
2008,07,25,06,11,10.10
2008,07,25,06,12,10.10
2008,07,25,06,13,10.10
2008,07,25,06,14,10.10
2008,07,25,06,15,10.10
2008,07,25,06,16,10.10
2008,07,25,06,17,10.10
2008,07,25,06,18,10.10
2008,07,25,06,19,10.10
2008,07,25,06,20,10.10
2008,07,25,06,21,10.20
2008,07,25,06,22,10.20
2008,07,25,06,23,10.30
2008,07,25,06,24,10.30
2008,07,25,06,25,10.40
2008,07,25,06,26,10.40
2008,07,25,06,27,10.40
2008,07,25,06,28,10.50
2008,07,25,06,29,10.60
2008,07,25,06,30,10.60
2008,07,25,06,31,10.60
2008,07,25,06,32,10.60
2008,07,25,06,33,10.70
2008,07,25,06,34,10.70
2008,07,25,06,35,10.70
2008,07,25,06,36,10.80
2008,07,25,06,37,10.80
2008,07,25,06,38,10.80
2008,07,25,06,39,10.90
2008,07,25,06,40,10.90
2008,07,25,06,41,10.90
2008,07,25,06,42,10.90
2008,07,25,06,43,11.10
2008,07,25,06,44,11.10
2008,07,25,06,45,11.20
2008,07,25,06,46,11.20
2008,07,25,06,47,11.30
2008,07,25,06,48,11.40
2008,07,25,06,49,11.40
2008,07,25,06,50,11.50
2008,07,25,06,51,11.60
2008,07,25,06,52,11.60
2008,07,25,06,53,11.70
2008,07,25,06,54,11.70
2008,07,25,06,55,11.80
2008,07,25,06,56,11.80
2008,07,25,06,57,11.80
2008,07,25,06,58,11.90
2008,07,25,06,59,12.00
2008,07,25,07,00,12.10
2008,07,25,07,01,12.10
2008,07,25,07,02,12.30
2008,07,25,07,03,12.30
2008,07,25,07,04,12.40
2008,07,25,07,05,12.50
2008,07,25,07,06,12.60
2008,07,25,07,07,12.60
2008,07,25,07,08,12.70
2008,07,25,07,09,12.70
2008,07,25,07,10,12.70
2008,07,25,07,11,12.70
2008,07,25,07,12,12.70
2008,07,25,07,13,12.70
2008,07,25,07,14,12.70
2008,07,25,07,15,12.70
2008,07,25,07,16,12.70
2008,07,25,07,17,12.70
2008,07,25,07,18,12.70
2008,07,25,07,19,12.80
2008,07,25,07,20,12.80
2008,07,25,07,21,12.80
2008,07,25,07,22,12.80
2008,07,25,07,23,12.80
2008,07,25,07,24,12.80
2008,07,25,07,25,12.90
2008,07,25,07,26,12.90
2008,07,25,07,27,13.00
2008,07,25,07,28,13.10
2008,07,25,07,29,13.10
2008,07,25,07,30,13.20
2008,07,25,07,31,13.20
2008,07,25,07,32,13.20
2008,07,25,07,33,13.30
2008,07,25,07,34,13.30
2008,07,25,07,35,13.30
2008,07,25,07,36,13.40
2008,07,25,07,37,13.40
2008,07,25,07,38,13.50
2008,07,25,07,39,13.50
2008,07,25,07,40,13.50
2008,07,25,07,41,13.50
2008,07,25,07,42,13.50
2008,07,25,07,43,13.50
2008,07,25,07,44,13.50
2008,07,25,07,45,13.50
2008,07,25,07,46,13.60
2008,07,25,07,47,13.60
2008,07,25,07,48,13.70
2008,07,25,07,49,13.70
2008,07,25,07,50,13.80
2008,07,25,07,51,13.80
2008,07,25,07,52,13.90
2008,07,25,07,53,14.00
2008,07,25,07,54,14.10
2008,07,25,07,55,14.20
2008,07,25,07,56,14.20
2008,07,25,07,57,14.30
2008,07,25,07,58,14.30
2008,07,25,07,59,14.40
2008,07,25,08,00,14.50
2008,07,25,08,01,14.50
2008,07,25,08,02,14.60
2008,07,25,08,03,14.60
2008,07,25,08,04,14.70
2008,07,25,08,05,14.80
2008,07,25,08,06,14.80
2008,07,25,08,07,14.90
2008,07,25,08,08,14.90
2008,07,25,08,09,15.00
2008,07,25,08,10,15.10
2008,07,25,08,11,15.10
2008,07,25,08,12,15.30
2008,07,25,08,13,15.30
2008,07,25,08,14,15.40
2008,07,25,08,15,15.50
2008,07,25,08,16,15.60
2008,07,25,08,17,15.70
2008,07,25,08,18,15.80
2008,07,25,08,19,15.80
2008,07,25,08,20,15.80
2008,07,25,08,21,15.80
2008,07,25,08,22,15.90
2008,07,25,08,23,15.90
2008,07,25,08,24,15.90
2008,07,25,08,25,15.90
2008,07,25,08,26,15.90
2008,07,25,08,27,15.90
2008,07,25,08,28,15.80
2008,07,25,08,29,15.80
2008,07,25,08,30,15.80
2008,07,25,08,31,15.80
2008,07,25,08,32,15.70
2008,07,25,08,33,15.70
2008,07,25,08,34,15.70
2008,07,25,08,35,15.80
2008,07,25,08,36,15.80
2008,07,25,08,37,15.90
2008,07,25,08,38,15.90
2008,07,25,08,39,15.90
2008,07,25,08,40,15.90
2008,07,25,08,41,16.00
2008,07,25,08,42,16.10
2008,07,25,08,43,16.10
2008,07,25,08,44,16.10
2008,07,25,08,45,16.10
2008,07,25,08,46,16.10
2008,07,25,08,47,16.20
2008,07,25,08,48,16.20
2008,07,25,08,49,16.20
2008,07,25,08,50,16.20
2008,07,25,08,51,16.30
2008,07,25,08,52,16.40
2008,07,25,08,53,16.40
2008,07,25,08,54,16.50
2008,07,25,08,55,16.60
2008,07,25,08,56,16.70
2008,07,25,08,57,16.70
2008,07,25,08,58,16.70
2008,07,25,08,59,16.70
2008,07,25,09,00,16.70
2008,07,25,09,01,16.70
2008,07,25,09,02,16.70
2008,07,25,09,03,16.70
2008,07,25,09,04,16.80
2008,07,25,09,05,16.90
2008,07,25,09,06,16.90
2008,07,25,09,07,17.00
2008,07,25,09,08,17.00
2008,07,25,09,09,17.10
2008,07,25,09,10,17.20
2008,07,25,09,11,17.20
2008,07,25,09,12,17.10
2008,07,25,09,13,17.00
2008,07,25,09,14,16.90
2008,07,25,09,15,16.80
2008,07,25,09,16,16.70
2008,07,25,09,17,16.70
2008,07,25,09,18,16.70
2008,07,25,09,19,16.70
2008,07,25,09,20,16.80
2008,07,25,09,21,16.80
2008,07,25,09,22,16.90
2008,07,25,09,23,16.90
2008,07,25,09,24,17.00
2008,07,25,09,25,17.00
2008,07,25,09,26,17.00
2008,07,25,09,27,17.00
2008,07,25,09,28,17.00
2008,07,25,09,29,17.00
2008,07,25,09,30,17.10
2008,07,25,09,31,17.10
2008,07,25,09,32,17.20
2008,07,25,09,33,17.30
2008,07,25,09,34,17.30
2008,07,25,09,35,17.30
2008,07,25,09,36,17.30
2008,07,25,09,37,17.20
2008,07,25,09,38,17.20
2008,07,25,09,39,17.20
2008,07,25,09,40,17.30
2008,07,25,09,41,17.30
2008,07,25,09,42,17.30
2008,07,25,09,43,17.30
2008,07,25,09,44,17.30
2008,07,25,09,45,17.40
2008,07,25,09,46,17.40
2008,07,25,09,47,17.50
2008,07,25,09,48,17.50
2008,07,25,09,49,17.70
2008,07,25,09,50,17.80
2008,07,25,09,51,17.80
2008,07,25,09,52,17.90
2008,07,25,09,53,17.90
2008,07,25,09,54,17.90
2008,07,25,09,55,18.10
2008,07,25,09,56,18.20
2008,07,25,09,57,18.30
2008,07,25,09,58,18.40
2008,07,25,09,59,18.40
2008,07,25,10,00,18.50
2008,07,25,10,01,18.50
2008,07,25,10,02,18.60
2008,07,25,10,03,18.60
2008,07,25,10,04,18.60
2008,07,25,10,05,18.70
2008,07,25,10,06,18.70
2008,07,25,10,07,18.90
2008,07,25,10,08,18.90
2008,07,25,10,09,18.90
2008,07,25,10,10,18.80
2008,07,25,10,11,18.70
2008,07,25,10,12,18.70
2008,07,25,10,13,18.60
2008,07,25,10,14,18.60
2008,07,25,10,15,18.60
2008,07,25,10,16,18.50
2008,07,25,10,17,18.50
2008,07,25,10,18,18.60
2008,07,25,10,19,18.70
2008,07,25,10,20,18.70
2008,07,25,10,21,18.80
2008,07,25,10,22,18.90
2008,07,25,10,23,19.00
2008,07,25,10,24,19.10
2008,07,25,10,25,19.20
2008,07,25,10,26,19.20
2008,07,25,10,27,19.20
2008,07,25,10,28,19.20
2008,07,25,10,29,19.10
2008,07,25,10,30,19.00
2008,07,25,10,31,18.90
2008,07,25,10,32,18.90
2008,07,25,10,33,18.90
2008,07,25,10,34,18.90
2008,07,25,10,35,18.90
2008,07,25,10,36,18.90
2008,07,25,10,37,19.00
2008,07,25,10,38,19.10
2008,07,25,10,39,19.10
2008,07,25,10,40,19.00
2008,07,25,10,41,18.90
2008,07,25,10,42,18.70
2008,07,25,10,43,18.60
2008,07,25,10,44,18.70
2008,07,25,10,45,18.70
2008,07,25,10,46,18.70
2008,07,25,10,47,18.70
2008,07,25,10,48,18.80
2008,07,25,10,49,18.80
2008,07,25,10,50,18.80
2008,07,25,10,51,18.80
2008,07,25,10,52,18.70
2008,07,25,10,53,18.70
2008,07,25,10,54,18.60
2008,07,25,10,55,18.60
2008,07,25,10,56,18.50
2008,07,25,10,57,18.50
2008,07,25,10,58,18.50
2008,07,25,10,59,18.50
2008,07,25,11,00,18.60
2008,07,25,11,01,18.60
2008,07,25,11,02,18.70
2008,07,25,11,03,18.70
2008,07,25,11,04,18.70
2008,07,25,11,05,18.70
2008,07,25,11,06,18.70
2008,07,25,11,07,18.60
2008,07,25,11,08,18.60
2008,07,25,11,09,18.60
2008,07,25,11,10,18.60
2008,07,25,11,11,18.70
2008,07,25,11,12,18.60
2008,07,25,11,13,18.60
2008,07,25,11,14,18.60
2008,07,25,11,15,18.70
2008,07,25,11,16,18.70
2008,07,25,11,17,18.60
2008,07,25,11,18,18.40
2008,07,25,11,19,18.30
2008,07,25,11,20,18.30
2008,07,25,11,21,18.30
2008,07,25,11,22,18.30
2008,07,25,11,23,18.30
2008,07,25,11,24,18.40
2008,07,25,11,25,18.50
2008,07,25,11,26,18.50
2008,07,25,11,27,18.60
2008,07,25,11,28,18.60
2008,07,25,11,29,18.60
2008,07,25,11,30,18.60
2008,07,25,11,31,18.60
2008,07,25,11,32,18.60
2008,07,25,11,33,18.70
2008,07,25,11,34,18.70
2008,07,25,11,35,18.70
2008,07,25,11,36,18.60
2008,07,25,11,37,18.60
2008,07,25,11,38,18.60
2008,07,25,11,39,18.50
2008,07,25,11,40,18.50
2008,07,25,11,41,18.40
2008,07,25,11,42,18.40
2008,07,25,11,43,18.40
2008,07,25,11,44,18.20
2008,07,25,11,45,18.20
2008,07,25,11,46,18.20
2008,07,25,11,47,18.20
2008,07,25,11,48,18.20
2008,07,25,11,49,18.20
2008,07,25,11,50,18.30
2008,07,25,11,51,18.30
2008,07,25,11,52,18.30
2008,07,25,11,53,18.30
2008,07,25,11,54,18.30
2008,07,25,11,55,18.30
2008,07,25,11,56,18.20
2008,07,25,11,57,18.30
2008,07,25,11,58,18.30
2008,07,25,11,59,18.20
2008,07,25,12,00,18.20
2008,07,25,12,01,18.30
2008,07,25,12,02,18.30
2008,07,25,12,03,18.40
2008,07,25,12,04,18.40
2008,07,25,12,05,18.50
2008,07,25,12,06,18.50
2008,07,25,12,07,18.60
2008,07,25,12,08,18.70
2008,07,25,12,09,18.70
2008,07,25,12,10,18.70
2008,07,25,12,11,18.70
2008,07,25,12,12,18.70
2008,07,25,12,13,18.60
2008,07,25,12,14,18.70
2008,07,25,12,15,18.60
2008,07,25,12,16,18.70
2008,07,25,12,17,18.70
2008,07,25,12,18,18.70
2008,07,25,12,19,18.70
2008,07,25,12,20,18.80
2008,07,25,12,21,18.90
2008,07,25,12,22,19.00
2008,07,25,12,23,19.10
2008,07,25,12,24,19.20
2008,07,25,12,25,19.20
2008,07,25,12,26,19.20
2008,07,25,12,27,19.20
2008,07,25,12,28,19.30
2008,07,25,12,29,19.30
2008,07,25,12,30,19.40
2008,07,25,12,31,19.40
2008,07,25,12,32,19.60
2008,07,25,12,33,19.70
2008,07,25,12,34,19.70
2008,07,25,12,35,19.60
2008,07,25,12,36,19.60
2008,07,25,12,37,19.50
2008,07,25,12,38,19.50
2008,07,25,12,39,19.50
2008,07,25,12,40,19.60
2008,07,25,12,41,19.70
2008,07,25,12,42,19.80
2008,07,25,12,43,19.80
2008,07,25,12,44,19.80
2008,07,25,12,45,19.80
2008,07,25,12,46,19.70
2008,07,25,12,47,19.70
2008,07,25,12,48,19.80
2008,07,25,12,49,19.80
2008,07,25,12,50,19.80
2008,07,25,12,51,19.80
2008,07,25,12,52,19.90
2008,07,25,12,53,19.90
2008,07,25,12,54,19.90
2008,07,25,12,55,19.90
2008,07,25,12,56,20.00
2008,07,25,12,57,20.20
2008,07,25,12,58,20.30
2008,07,25,12,59,20.50
2008,07,25,13,00,20.60
2008,07,25,13,01,20.70
2008,07,25,13,02,20.80
2008,07,25,13,03,20.80
2008,07,25,13,04,20.90
2008,07,25,13,05,21.00
2008,07,25,13,06,21.10
2008,07,25,13,07,21.20
2008,07,25,13,08,21.40
2008,07,25,13,09,21.60
2008,07,25,13,10,21.80
2008,07,25,13,11,21.80
2008,07,25,13,12,21.80
2008,07,25,13,13,21.80
2008,07,25,13,14,21.80
2008,07,25,13,15,21.80
2008,07,25,13,16,21.60
2008,07,25,13,17,21.60
2008,07,25,13,18,21.60
2008,07,25,13,19,21.60
2008,07,25,13,20,21.40
2008,07,25,13,21,21.40
2008,07,25,13,22,21.60
2008,07,25,13,23,21.60
2008,07,25,13,24,21.70
2008,07,25,13,25,21.70
2008,07,25,13,26,21.90
2008,07,25,13,27,22.00
2008,07,25,13,28,22.00
2008,07,25,13,29,22.20
2008,07,25,13,30,22.50
2008,07,25,13,31,22.50
2008,07,25,13,32,22.60
2008,07,25,13,33,22.60
2008,07,25,13,34,22.70
2008,07,25,13,35,22.80
2008,07,25,13,36,22.90
2008,07,25,13,37,22.90
2008,07,25,13,38,22.90
2008,07,25,13,39,22.90
2008,07,25,13,40,23.10
2008,07,25,13,41,23.10
2008,07,25,13,42,23.00
2008,07,25,13,43,22.90
2008,07,25,13,44,22.80
2008,07,25,13,45,22.60
2008,07,25,13,46,22.40
2008,07,25,13,47,22.20
2008,07,25,13,48,22.10
2008,07,25,13,49,22.10
2008,07,25,13,50,22.10
2008,07,25,13,51,22.00
2008,07,25,13,52,22.00
2008,07,25,13,53,22.00
2008,07,25,13,54,21.90
2008,07,25,13,55,21.90
2008,07,25,13,56,21.90
2008,07,25,13,57,22.00
2008,07,25,13,58,22.10
2008,07,25,13,59,22.20
2008,07,25,14,00,22.30
2008,07,25,14,01,22.40
2008,07,25,14,02,22.50
2008,07,25,14,03,22.50
2008,07,25,14,04,22.60
2008,07,25,14,05,22.60
2008,07,25,14,06,22.80
2008,07,25,14,07,22.90
2008,07,25,14,08,22.90
2008,07,25,14,09,22.90
2008,07,25,14,10,22.80
2008,07,25,14,11,22.60
2008,07,25,14,12,22.40
2008,07,25,14,13,22.30
2008,07,25,14,14,22.30
2008,07,25,14,15,22.40
2008,07,25,14,16,22.50
2008,07,25,14,17,22.60
2008,07,25,14,18,22.70
2008,07,25,14,19,22.70
2008,07,25,14,20,22.90
2008,07,25,14,21,23.10
2008,07,25,14,22,23.00
2008,07,25,14,23,23.00
2008,07,25,14,24,22.70
2008,07,25,14,25,22.50
2008,07,25,14,26,22.50
2008,07,25,14,27,22.40
2008,07,25,14,28,22.50
2008,07,25,14,29,22.60
2008,07,25,14,30,22.60
2008,07,25,14,31,22.50
2008,07,25,14,32,22.60
2008,07,25,14,33,22.60
2008,07,25,14,34,22.50
2008,07,25,14,35,22.50
2008,07,25,14,36,22.50
2008,07,25,14,37,22.50
2008,07,25,14,38,22.50
2008,07,25,14,39,22.40
2008,07,25,14,40,22.40
2008,07,25,14,41,22.50
2008,07,25,14,42,22.50
2008,07,25,14,43,22.50
2008,07,25,14,44,22.80
2008,07,25,14,45,22.90
2008,07,25,14,46,23.00
2008,07,25,14,47,23.10
2008,07,25,14,48,23.30
2008,07,25,14,49,23.40
2008,07,25,14,50,23.60
2008,07,25,14,51,23.70
2008,07,25,14,52,23.80
2008,07,25,14,53,23.80
2008,07,25,14,54,23.80
2008,07,25,14,55,23.70
2008,07,25,14,56,23.80
2008,07,25,14,57,23.80
2008,07,25,14,58,23.80
2008,07,25,14,59,23.80
2008,07,25,15,00,23.70
2008,07,25,15,01,23.70
2008,07,25,15,02,23.70
2008,07,25,15,03,23.60
2008,07,25,15,04,23.60
2008,07,25,15,05,23.70
2008,07,25,15,06,23.70
2008,07,25,15,07,23.60
2008,07,25,15,08,23.40
2008,07,25,15,09,23.30
2008,07,25,15,10,23.20
2008,07,25,15,11,23.10
2008,07,25,15,12,23.00
2008,07,25,15,13,22.90
2008,07,25,15,14,22.80
2008,07,25,15,15,22.70
2008,07,25,15,16,22.60
2008,07,25,15,17,22.60
2008,07,25,15,18,22.50
2008,07,25,15,19,22.50
2008,07,25,15,20,22.40
2008,07,25,15,21,22.30
2008,07,25,15,22,22.20
2008,07,25,15,23,22.10
2008,07,25,15,24,22.10
2008,07,25,15,25,22.00
2008,07,25,15,26,21.90
2008,07,25,15,27,21.80
2008,07,25,15,28,21.70
2008,07,25,15,29,21.60
2008,07,25,15,30,21.60
2008,07,25,15,31,21.60
2008,07,25,15,32,21.60
2008,07,25,15,33,21.60
2008,07,25,15,34,21.60
2008,07,25,15,35,21.60
2008,07,25,15,36,21.60
2008,07,25,15,37,21.60
2008,07,25,15,38,21.60
2008,07,25,15,39,21.60
2008,07,25,15,40,21.60
2008,07,25,15,41,21.50
2008,07,25,15,42,21.40
2008,07,25,15,43,21.60
2008,07,25,15,44,21.60
2008,07,25,15,45,21.60
2008,07,25,15,46,21.60
2008,07,25,15,47,21.60
2008,07,25,15,48,21.60
2008,07,25,15,49,21.60
2008,07,25,15,50,21.60
2008,07,25,15,51,21.70
2008,07,25,15,52,21.80
2008,07,25,15,53,21.70
2008,07,25,15,54,21.70
2008,07,25,15,55,21.80
2008,07,25,15,56,21.80
2008,07,25,15,57,22.00
2008,07,25,15,58,22.10
2008,07,25,15,59,22.30
2008,07,25,16,00,22.60
2008,07,25,16,01,22.70
2008,07,25,16,02,23.00
2008,07,25,16,03,23.10
2008,07,25,16,04,23.10
2008,07,25,16,05,23.10
2008,07,25,16,06,23.10
2008,07,25,16,07,23.10
2008,07,25,16,08,23.20
2008,07,25,16,09,23.30
2008,07,25,16,10,23.30
2008,07,25,16,11,23.40
2008,07,25,16,12,23.70
2008,07,25,16,13,23.80
2008,07,25,16,14,23.90
2008,07,25,16,15,24.00
2008,07,25,16,16,24.10
2008,07,25,16,17,24.10
2008,07,25,16,18,24.10
2008,07,25,16,19,24.10
2008,07,25,16,20,24.10
2008,07,25,16,21,24.10
2008,07,25,16,22,24.20
2008,07,25,16,23,24.20
2008,07,25,16,24,24.30
2008,07,25,16,25,24.30
2008,07,25,16,26,24.40
2008,07,25,16,27,24.50
2008,07,25,16,28,24.50
2008,07,25,16,29,24.50
2008,07,25,16,30,24.50
2008,07,25,16,31,24.50
2008,07,25,16,32,24.50
2008,07,25,16,33,24.30
2008,07,25,16,34,24.30
2008,07,25,16,35,24.40
2008,07,25,16,36,24.40
2008,07,25,16,37,24.50
2008,07,25,16,38,24.60
2008,07,25,16,39,24.60
2008,07,25,16,40,24.60
2008,07,25,16,41,24.60
2008,07,25,16,42,24.50
2008,07,25,16,43,24.40
2008,07,25,16,44,24.30
2008,07,25,16,45,24.20
2008,07,25,16,46,24.30
2008,07,25,16,47,24.40
2008,07,25,16,48,24.50
2008,07,25,16,49,24.50
2008,07,25,16,50,24.50
2008,07,25,16,51,24.40
2008,07,25,16,52,24.30
2008,07,25,16,53,24.20
2008,07,25,16,54,24.20
2008,07,25,16,55,24.10
2008,07,25,16,56,24.10
2008,07,25,16,57,24.00
2008,07,25,16,58,23.90
2008,07,25,16,59,23.80
2008,07,25,17,00,23.80
2008,07,25,17,01,23.70
2008,07,25,17,02,23.70
2008,07,25,17,03,23.70
2008,07,25,17,04,23.70
2008,07,25,17,05,23.70
2008,07,25,17,06,23.70
2008,07,25,17,07,23.70
2008,07,25,17,08,23.70
2008,07,25,17,09,23.70
2008,07,25,17,10,23.80
2008,07,25,17,11,23.80
2008,07,25,17,12,23.90
2008,07,25,17,13,24.00
2008,07,25,17,14,24.10
2008,07,25,17,15,24.00
2008,07,25,17,16,23.90
2008,07,25,17,17,23.80
2008,07,25,17,18,23.80
2008,07,25,17,19,23.70
2008,07,25,17,20,23.70
2008,07,25,17,21,23.70